Regional Weather Roundup
Issued by NWS

Home | Current Version | Previous Version | Text Only | Print | Product List | Glossary Off
Versions: 1 2 3 4 5 6 7 8 9 10 11 12 13 14 15 16 17 18 19 20 21 22 23 24 25 26 27 28 29 30 31 32 33 34 35 36 37 38 39 40 41 42 43 44 45 46 47 48 49 50

000
ASUS43 KIND 210409
RWRIN

WEATHER ROUNDUP FOR INDIANA
NATIONAL WEATHER SERVICE INDIANAPOLIS IN
1200 AM EDT MON APR 21 2014

NOTE: "FAIR" INDICATES FEW OR NO CLOUDS BELOW 12,000 FEET WITH NO
SIGNIFICANT WEATHER AND/OR OBSTRUCTIONS TO VISIBILITY.

* - STATION DOES NOT REPORT WEATHER SUCH AS PRECIPITATION OR FOG.

+ - STATION NOT QUALITY CONTROLLED BY THE NATIONAL WEATHER SERVICE.
    USE DATA WITH CAUTION...ESPECIALLY DEWPOINT AND RELATIVE
    HUMIDITY OBSERVATIONS.

INZ001>003-010>013-019-020-210500-
NORTHWEST INDIANA

CITY           SKY/WX    TMP DP  RH WIND       PRES   REMARKS
GARY /AIRPORT/ CLEAR     67  34  29 S6        30.05F
LA PORTE +     CLEAR     60  31  33 S8        30.07F
MICHIGAN CITY+ CLEAR     64  28  25 S7        30.05F
MONTICELLO +   PTCLDY    61  38  43 SE3       30.07F
RENSSELAER +   CLEAR     55  37  50 S5        30.08F
VALPARAISO     CLEAR     61  32  33 S6        30.06F

$$

LMZ046-743>745-210500-
SOUTHERN LAKE MICHIGAN

STATION/POSITION TIME  TEMP WIND        PRES
                       AIR  DIR/SP/G
                 (UTC) (F)  (DEG/KT/KT) (MB)
MICHIGAN CITY    0400   67  140/ 10/ 13   N/A

$$

INZ004-005-014>016-021>024-210500-
NORTH CENTRAL INDIANA

CITY           SKY/WX    TMP DP  RH WIND       PRES   REMARKS
GOSHEN         CLEAR     49  39  68 SE5       30.08F
LOGANSPORT +   PTCLDY    50  37  62 SE3       30.09F
PERU/GRISSOM   CLEAR     55  39  54 SE6       30.09F
ROCHESTER +    CLEAR     54  43  66 CALM      30.09F
SOUTH BEND     PTCLDY    60  31  33 S5        30.08F
WARSAW +       CLEAR     48  36  61 CALM      30.09F

$$

INZ006>009-017-018-025>027-210500-
NORTHEAST INDIANA

CITY           SKY/WX    TMP DP  RH WIND       PRES   REMARKS
ANGOLA *+      CLEAR     50  37  62 CALM      30.10F
AUBURN +       CLEAR     50  37  62 CALM      30.10F
FORT WAYNE     PTCLDY    51  39  63 CALM      30.11F

$$

INZ028-029-035-036-043>045-051>053-210500-
WEST CENTRAL INDIANA

CITY           SKY/WX    TMP DP  RH WIND       PRES   REMARKS
GREENCASTLE +  PTCLDY    55  39  54 CALM      30.10F
LAFAYETTE      PTCLDY    56  38  50 CALM      30.08F
TERRE HAUTE    CLEAR     53  45  74 CALM      30.09F

$$

INZ030>032-037>040-046>048-054>057-064-065-210500-
CENTRAL INDIANA

CITY           SKY/WX    TMP DP  RH WIND       PRES   REMARKS
CP ATTERBURY + CLEAR     50  45  81 CALM      30.11F
INDIANAPOLIS   PTCLDY    57  39  51 SW3       30.09F
-EAGLE CREEK   PTCLDY    56  47  71 NW3       30.09F
KOKOMO *+      CLEAR     52  41  66 CALM      30.10S
MARION +       CLEAR     52  40  62 CALM      30.11F
MT COMFORT *+  CLEAR     52  43  71 CALM      30.11F
SHELBYVILLE    CLEAR     55  42  61 E5        30.09F
ZIONSVILLE +   CLEAR     51  38  59 CALM      30.11F

$$

INZ033-034-041-042-049-050-058-059-210500-
EAST CENTRAL INDIANA

CITY           SKY/WX    TMP DP  RH WIND       PRES   REMARKS
MUNCIE         CLEAR     52  40  63 CALM      30.10F

$$

INZ060-061-067>069-081>083-085>088-210500-
SOUTHWEST INDIANA

CITY           SKY/WX    TMP DP  RH WIND       PRES   REMARKS
EVANSVILLE     PTCLDY    59  48  67 CALM      30.10F
HUNTINGBURG *+ PTCLDY    55  43  62 CALM      30.11F
WASHINGTON +   CLEAR     55  44  67 CALM      30.09F

$$

INZ062-063-066-070>080-084-089>092-210500-
SOUTH CENTRAL AND SOUTHEAST INDIANA

CITY           SKY/WX    TMP DP  RH WIND       PRES   REMARKS
BLOOMINGTON    CLEAR     52  39  61 CALM      30.10F
SEYMOUR +      CLEAR     50  32  50 CALM      30.10

$$




USA.gov is the U.S. government's official web portal to all federal, state and local government web resources and services.